Regional Weather Roundup
Issued by NWS

Home | Current Version | Previous Version | Text Only | Print | Product List | Glossary On
Versions: 1 2 3 4 5 6 7 8 9 10 11 12 13 14 15 16 17 18 19 20 21 22 23 24 25 26 27 28 29 30 31 32 33 34 35 36 37 38 39 40 41 42 43 44 45 46 47 48 49 50
000
ASUS44 KEWX 221510
RWRTX
SOUTH TEXAS REGIONAL WEATHER ROUNDUP
NATIONAL WEATHER SERVICE AUSTIN/SAN ANTONIO TX
1000 AM CDT FRI AUG 22 2014

NOTE: "FAIR" INDICATED FEW OR NO CLOUDS BELOW 12,000 FEET WITH NO
SIGNIFICANT WEATHER AND/OR OBSTRUCTIONS TO VISIBILITY.

* - THESE STATIONS ARE NOT NWS OR FAA STATIONS...AND ARE NOT SUBJECT
    TO NWS AND FAA QUALITY CONTROL.

TXZ171-172-183>190-221600-
TEXAS HILL COUNTRY AND EDWARDS PLATEAU

CITY           SKY/WX    TMP DP  RH WIND       PRES   REMARKS
JUNCTION       SUNNY     80  66  62 S14       30.10S
*LLANO         SUNNY     86  66  51 SW9       30.12S
BURNET         SUNNY     83  67  58 S14       30.12R
*HORSESHOE BAY SUNNY     84  66  55 S5G16     30.09S
*KERRVILLE     SUNNY     79  69  70 S10G17    30.11S
*FREDERICKSBRG SUNNY     80  65  59 S15       30.11R
*ROCKSPRINGS   SUNNY     77  66  69 S15       30.14R
*BOERNE STAGE  MOSUNNY   81  66  61 S12G17    30.12R
*CASTROVILLE   SUNNY     84  68  57 S10       30.08F
HONDO          MOSUNNY   82  70  66 S14       30.09S
*UVALDE        MOSUNNY   81  72  74 S9G16     30.07S
DEL RIO        SUNNY     81  68  64 SE13G23   30.03R
LAUGHLIN AFB   MOSUNNY   81  69  67 S15       30.04S
CARRIZO SPRGS  SUNNY     82  68  61 SE9G18    30.02S
$$

TXZ173-191>194-202-209-217>225-228-221600-
CENTRAL AND SOUTH CENTRAL TEXAS

CITY           SKY/WX    TMP DP  RH WIND       PRES   REMARKS
GEORGETOWN     MOSUNNY   84  68  58 S12       30.09S
AUSTIN/BERGSTM MOSUNNY   86  71  60 S17G23    30.07R HX  91
AUSTIN/MABRY   SUNNY     85  72  65 S6        30.08S HX  91
*AUSTIN/EXEC   SUNNY     84  72  65 SW15      30.08S
*LAGO VISTA    SUNNY     84  68  59 S13G20    30.10S
SAN MARCOS     MOSUNNY   84  70  61 S15       30.09S
NEW BRAUNFELS  SUNNY     86  71  60 S14       30.06S HX  91
RANDOLPH AFB   SUNNY     85  70  61 S10       30.08S
PT SAN ANTONIO MOSUNNY   84  71  65 S10       30.06S HX  90
SAN ANTONIO    MOSUNNY   85  71  63 S10       30.08S HX  90
STINSON FIELD  MOSUNNY   85  72  65 S9        30.05F HX  91
*PLEASANTON    SUNNY     85  70  59 SE7       30.06S HX  90
*LA GRANGE     MOSUNNY   88  76  67 S9        30.06S HX  99
*GIDDINGS      SUNNY     85  73  65 S8G18     30.11S HX  92
*GONZALES      MOSUNNY   87  74  65 S12       30.07R HX  96
$$

TXZ163>164-176>182-195>201-210>213-226-227-235-221600-
SOUTHEAST TEXAS

CITY           SKY/WX    TMP DP  RH WIND       PRES   REMARKS
COLLEGE STN    MOSUNNY   84  75  74 SW9       30.08S HX  92
*BRYAN         PTSUNNY   85  76  74 S10       30.09R HX  94
*CALDWELL      PTSUNNY   84  73  70 S13       30.11R HAZE    HX  91
*CROCKETT      PTSUNNY   86  81  84 S9        30.13S HX 102
*BRENHAM       MOSUNNY   87  76  70 S10G17    30.09R HX  97
HUNTSVILLE     CLOUDY    83  75  77 S10       30.11R HX  90
CONROE         PTSUNNY   85  77  77 VRB6      30.10S HX  95
HOUSTON BUSH   MOSUNNY   87  77  72 S6        30.09S HX  99
HOUSTON HOBBY  MOSUNNY   86  76  71 S6        30.08S HX  96
*HOUSTON SW AP MOSUNNY   85  81  88 MISG      30.09S HX  99
PEARLAND       MOSUNNY   86  76  71 S5        30.10S HX  96
HOUSTON HOOKS  PTSUNNY   86  78  77 VRB5      30.09S HX  98
ELLINGTON FLD  PTSUNNY   86  77  74 S5        30.10S HX  97
SUGAR LAND     MOSUNNY   86  78  77 SW7       30.08S HX  98
*HOUSTON EXEC  NOT AVBL
*CLEVELAND MUN PTSUNNY   85  79  82 SW5       30.11R HAZE    HX  97
*WHARTON       PTSUNNY   88  77  70 S9        30.08S HX  99
$$

TXZ214>216-236>238-221600-
THE UPPER TEXAS COAST

CITY           SKY/WX    TMP DP  RH WIND       PRES   REMARKS
*ORANGE        PTSUNNY   86  76  70 S5        30.12R HX  96
PORT ARTHUR    MOSUNNY   87  76  69 SW6       30.10R HX  97
GALVESTON      MOSUNNY   88  77  69 S8        30.09S HX 100
ANGLETON       MOSUNNY   87  75  67 S8        30.08S HX  96
*BAY CITY      PTSUNNY   90  77  66 SW8       30.07S HX 103
PALACIOS       PTSUNNY   89  77  67 S13       30.07R HX 101
$$

TXZ229>234-239>247-221600-
TEXAS COASTAL BEND AND RIO GRANDE PLAINS

CITY           SKY/WX    TMP DP  RH WIND       PRES   REMARKS
VICTORIA       MOSUNNY   89  74  60 S13       30.07R HX  98
*BEEVILLE      MOSUNNY   86  74  66 S13       30.06R HX  94
ROCKPORT       MOSUNNY   86  76  71 S12G18    30.05S HX  96
*PORT ARANSAS  SUNNY     84  78  83 S9        30.06R HX  96
*PORT LAVACA   MOSUNNY   88  75  66 S12       30.06S HX  98
*INGLESIDE     SUNNY     87  76  69 S16       30.05S HX  96
CORPUS CHRISTI MOSUNNY   88  75  65 S15G21    30.05R HX  97
CORPUS NAS     MOSUNNY   87  78  74 S13       30.05R HX 100
*ROBSTOWN      NOT AVBL
ALICE          SUNNY     87  74  64 S15       30.04S HX  95
KINGSVILLE NAS MOSUNNY   89  76  65 S16       30.05S HX 100
COTULLA        SUNNY     85  69  58 S14       30.03S
*FAITH RANCH   SUNNY     82  70  65 SE16      30.03S
LAREDO         SUNNY     87  70  57 S16       30.05R HX  92
$$

TXZ248>255-221600-
DEEP SOUTH TEXAS

CITY           SKY/WX    TMP DP  RH WIND       PRES   REMARKS
BROWNSVILLE    SUNNY     88  74  63 S14       30.05S HX  96
PORT ISABEL    SUNNY     89  73  59 S12       30.04F HX  97
*SOUTH PADRE   SUNNY     86  77  74 S8        30.05S HX  97
HARLINGEN      SUNNY     87  75  67 S16       30.04S HX  96
*HEBBRONVILLE  SUNNY     84  69  60 S13G22    30.05S
MCALLEN        MOSUNNY   85  75  72 S12       30.05S HX  93
*WESLACO       MOSUNNY   88  72  59 S12       30.04F HAZE    HX  94
FALFURRIAS     SUNNY     91  75  59 S14G22    30.04S HX 101
EDINBURG       MOSUNNY   88  72  60 S16       30.05S HX  94
*ZAPATA        MOSUNNY   86  67  53 S15       30.02R
$$

TXZ213>215-236>238-242>244-246-247-251-254-255-221600-
CMAN STATIONS

STATION/POSITION TIME  TEMP    WIND        PRES    WAVE
                       AIR SEA DIR/SP/G            HT/PER
                 (UTC) (F)     (DEG/KT/KT) (MB)    (FT/S)
SABINE PASS      1500   87 87  200/  5/ 10 1019.4
SEA RIM ST PARK  1500   86     200/  6/  7 1019.7
NORTH JETTY/GLS  1500   86 86  210/  6/  7   N/A
EAGLE POINT      1500   85 86  230/  3/  6 1019.1
MORGANS POINT    1500   85     210/  4/  6 1018.9
PORT O`CONNOR    1500          200/ 10/ 12   N/A
PORT ARANSAS     1500   81 82  170/ 11/ 11 1018.5
MALAQUITE BEACH  1500   80 80  160/  8/  9 1017.2
BAFFIN BAY       1500   83 81  170/ 11/ 13 1017.6
PORT ISABEL      1500   86 80  160/  7/ 10 1017.8
$$

GMZ080-GMZ150>470-221600-
OFFSHORE BUOY REPORTS

STATION/POSITION TIME  TEMP    WIND        PRES    WAVE
                       AIR SEA DIR/SP/G            HT/PER
                 (UTC) (F)     (DEG/KT/KT) (MB)    (FT/S)
90 E PT ARANSAS  1500   84 85  160/  8/ 10 1018.8    4/ 7
35 NE PT MANSFLD 1500   83 84  200/ 12/ 12 1017.4    4/ 7
200 E PT ISABEL  1500   85 86  100/  8/ 10 1017.9    2/ 6
$$


USA.gov is the U.S. government's official web portal to all federal, state and local government web resources and services.